| time (UTC) | temp C | wind direction | speed KPH | gust KPH | rain 1hr cm | rain 24hr cm | rain mn cm | humidity % | barometer mb |
| 20260506192902 | 13 | 161 | 6.4 | 17.7 | 0.00 | 0.00 | 0.00 | 97 | 1009.4 |
| 20260506192359 | 14 | 80 | 3.2 | 12.9 | 0.00 | 0.00 | 0.00 | 97 | 1009.5 |
| 20260506191856 | 14 | 222 | 0.0 | 6.4 | 0.00 | 0.00 | 0.00 | 97 | 1009.4 |
| 20260506191352 | 14 | 46 | 8.0 | 8.0 | 0.00 | 0.00 | 0.00 | 97 | 1009.5 |
| 20260506190849 | 13 | 279 | 0.0 | 9.7 | 0.00 | 0.00 | 0.00 | 97 | 1009.5 |
| 20260506190346 | 14 | 105 | 0.0 | 8.0 | 0.00 | 0.00 | 0.00 | 97 | 1009.7 |
| 20260506185843 | 13 | 98 | 6.4 | 9.7 | 0.00 | 0.00 | 0.00 | 97 | 1009.6 |
| 20260506185340 | 13 | 69 | 1.6 | 11.3 | 0.00 | 0.00 | 0.00 | 97 | 1009.7 |
| 20260506184831 | 14 | 76 | 4.8 | 9.7 | 0.00 | 0.00 | 0.00 | 97 | 1009.9 |
| 20260506184329 | 13 | 180 | 3.2 | 22.5 | 0.00 | 0.00 | 0.00 | 97 | 1010.0 |
| 20260506183826 | 13 | 138 | 4.8 | 8.0 | 0.00 | 0.00 | 0.00 | 97 | 1009.8 |
| 20260506183321 | 13 | 146 | 8.0 | 14.5 | 0.00 | 0.00 | 0.00 | 96 | 1010.1 |
| 20260506182819 | 13 | 135 | 1.6 | 8.0 | 0.00 | 0.00 | 0.00 | 96 | 1010.3 |
| 20260506182315 | 13 | 117 | 4.8 | 4.8 | 0.00 | 0.00 | 0.00 | 96 | 1010.1 |
| 20260506181808 | 13 | 131 | 4.8 | 12.9 | 0.00 | 0.00 | 0.00 | 96 | 1010.1 |
| 20260506181305 | 13 | 98 | 6.4 | 20.9 | 0.00 | 0.00 | 0.00 | 96 | 1010.1 |
| 20260506180802 | 13 | 135 | 3.2 | 17.7 | 0.00 | 0.00 | 0.00 | 96 | 1009.9 |
| 20260506180258 | 14 | 203 | 3.2 | 8.0 | 0.00 | 0.00 | 0.00 | 96 | 1009.7 |
| 20260506175754 | 14 | 127 | 3.2 | 14.5 | 0.00 | 0.00 | 0.00 | 95 | 1009.8 |
| 20260506175251 | 14 | 191 | 4.8 | 9.7 | 0.00 | 0.00 | 0.00 | 95 | 1010.0 |
| 20260506174749 | 14 | 126 | 0.0 | 6.4 | 0.00 | 0.00 | 0.00 | 95 | 1010.3 |
| 20260506174246 | 14 | 137 | 4.8 | 9.7 | 0.00 | 0.00 | 0.00 | 95 | 1010.2 |
| 20260506173743 | 14 | 165 | 6.4 | 8.0 | 0.00 | 0.00 | 0.00 | 94 | 1010.4 |
| 20260506173240 | 14 | 128 | 3.2 | 8.0 | 0.00 | 0.00 | 0.00 | 94 | 1010.5 |
| 20260506172737 | 14 | 96 | 3.2 | 12.9 | 0.00 | 0.00 | 0.00 | 93 | 1010.7 |
| 20260506172233 | 14 | 143 | 6.4 | 8.0 | 0.00 | 0.00 | 0.00 | 93 | 1010.8 |
| 20260506171731 | 15 | 161 | 6.4 | 9.7 | 0.00 | 0.00 | 0.00 | 91 | 1010.9 |
| 20260506171228 | 15 | 129 | 8.0 | 12.9 | 0.00 | 0.00 | 0.00 | 90 | 1011.0 |
| 20260506170725 | 15 | 142 | 1.6 | 9.7 | 0.00 | 0.00 | 0.00 | 88 | 1011.3 |
| 20260506170216 | 15 | 179 | 3.2 | 3.2 | 0.00 | 0.00 | 0.00 | 87 | 1011.3 |
| 20260506165715 | 15 | 102 | 6.4 | 6.4 | 0.00 | 0.00 | 0.00 | 85 | 1011.3 |
| 20260506165211 | 16 | 89 | 0.0 | 11.3 | 0.00 | 0.00 | 0.00 | 83 | 1011.3 |
| 20260506164709 | 16 | 107 | 1.6 | 8.0 | 0.00 | 0.00 | 0.00 | 83 | 1011.4 |
| 20260506164206 | 16 | 124 | 3.2 | 8.0 | 0.00 | 0.00 | 0.00 | 81 | 1011.3 |
| 20260506163702 | 16 | 237 | 11.3 | 19.3 | 0.00 | 0.00 | 0.00 | 79 | 1011.4 |
| 20260506163157 | 16 | 199 | 8.0 | 19.3 | 0.00 | 0.00 | 0.00 | 79 | 1011.2 |
| 20260506162653 | 16 | 111 | 1.6 | 8.0 | 0.00 | 0.00 | 0.00 | 79 | 1011.3 |
| 20260506162151 | 17 | 136 | 4.8 | 9.7 | 0.00 | 0.00 | 0.00 | 78 | 1011.5 |
| 20260506161648 | 17 | 166 | 11.3 | 17.7 | 0.00 | 0.00 | 0.00 | 77 | 1011.3 |
| 20260506161145 | 17 | 157 | 14.5 | 14.5 | 0.00 | 0.00 | 0.00 | 77 | 1011.3 |
| 20260506160643 | 17 | 146 | 3.2 | 9.7 | 0.00 | 0.00 | 0.00 | 77 | 1011.5 |
| 20260506160139 | 17 | 120 | 8.0 | 11.3 | 0.00 | 0.00 | 0.00 | 76 | 1011.5 |
| 20260506155637 | 17 | 238 | 3.2 | 11.3 | 0.00 | 0.00 | 0.00 | 76 | 1011.6 |
| 20260506155134 | 17 | 141 | 1.6 | 9.7 | 0.00 | 0.00 | 0.00 | 77 | 1011.9 |
| 20260506153236 | 17 | 176 | 3.2 | 12.9 | 0.00 | 0.00 | 0.00 | 77 | 1011.8 |
| 20260506152733 | 17 | 98 | 3.2 | 4.8 | 0.00 | 0.00 | 0.00 | 76 | 1011.6 |
| 20260506152231 | 17 | 168 | 3.2 | 6.4 | 0.00 | 0.00 | 0.00 | 76 | 1011.5 |
| 20260506151730 | 17 | 148 | 6.4 | 11.3 | 0.00 | 0.00 | 0.00 | 77 | 1011.5 |
| 20260506151225 | 17 | 216 | 6.4 | 14.5 | 0.00 | 0.00 | 0.00 | 76 | 1011.5 |
| 20260506150722 | 17 | 147 | 1.6 | 14.5 | 0.00 | 0.00 | 0.00 | 76 | 1011.5 |
| 20260506150220 | 17 | 25 | 3.2 | 8.0 | 0.00 | 0.00 | 0.00 | 75 | 1011.7 |
| 20260506145717 | 18 | 154 | 3.2 | 12.9 | 0.00 | 0.00 | 0.00 | 74 | 1011.7 |
| 20260506145213 | 18 | 74 | 4.8 | 9.7 | 0.00 | 0.00 | 0.00 | 74 | 1011.6 |
| 20260506144710 | 18 | 273 | 6.4 | 6.4 | 0.00 | 0.00 | 0.00 | 74 | 1011.7 |
| 20260506144207 | 18 | 145 | 0.0 | 16.1 | 0.00 | 0.00 | 0.00 | 74 | 1011.8 |
| 20260506143705 | 18 | 137 | 8.0 | 16.1 | 0.00 | 0.00 | 0.00 | 74 | 1011.9 |
| 20260506143203 | 18 | 125 | 8.0 | 16.1 | 0.00 | 0.00 | 0.00 | 74 | 1011.8 |
| 20260506142701 | 18 | 183 | 6.4 | 14.5 | 0.00 | 0.00 | 0.00 | 73 | 1011.7 |
| 20260506142158 | 18 | 152 | 14.5 | 19.3 | 0.00 | 0.00 | 0.00 | 72 | 1011.8 |
| 20260506141655 | 18 | 150 | 9.7 | 14.5 | 0.00 | 0.00 | 0.00 | 73 | 1011.9 |
| 20260506141153 | 18 | 118 | 3.2 | 14.5 | 0.00 | 0.00 | 0.00 | 73 | 1011.8 |
| 20260506140651 | 18 | 159 | 6.4 | 16.1 | 0.00 | 0.00 | 0.00 | 72 | 1011.9 |
| 20260506140148 | 17 | 199 | 11.3 | 20.9 | 0.00 | 0.00 | 0.00 | 75 | 1012.0 |
| 20260506135645 | 17 | 100 | 4.8 | 16.1 | 0.00 | 0.00 | 0.00 | 75 | 1012.0 |
| 20260506135141 | 17 | 68 | 8.0 | 12.9 | 0.00 | 0.00 | 0.00 | 76 | 1012.0 |
| 20260506134638 | 17 | 81 | 6.4 | 16.1 | 0.00 | 0.00 | 0.00 | 76 | 1011.9 |
| 20260506134134 | 17 | 38 | 1.6 | 9.7 | 0.00 | 0.00 | 0.00 | 76 | 1011.8 |
| 20260506133631 | 17 | 161 | 8.0 | 16.1 | 0.00 | 0.00 | 0.00 | 76 | 1011.6 |
| 20260506133128 | 17 | 152 | 6.4 | 32.2 | 0.00 | 0.00 | 0.00 | 77 | 1011.7 |
| 20260506132626 | 17 | 167 | 3.2 | 8.0 | 0.00 | 0.00 | 0.00 | 78 | 1011.8 |
| 20260506132122 | 17 | 174 | 6.4 | 17.7 | 0.00 | 0.00 | 0.00 | 79 | 1011.8 |
| 20260506131620 | 16 | 142 | 6.4 | 14.5 | 0.00 | 0.00 | 0.00 | 79 | 1012.0 |
| 20260506131116 | 16 | 142 | 12.9 | 12.9 | 0.00 | 0.00 | 0.00 | 80 | 1011.7 |
| 20260506130613 | 16 | 144 | 9.7 | 19.3 | 0.00 | 0.00 | 0.00 | 80 | 1011.9 |
| 20260506130111 | 16 | 281 | 3.2 | 16.1 | 0.00 | 0.00 | 0.00 | 80 | 1011.8 |
| 20260506125609 | 16 | 159 | 8.0 | 11.3 | 0.00 | 0.00 | 0.00 | 80 | 1011.9 |
| 20260506125106 | 16 | 128 | 6.4 | 12.9 | 0.00 | 0.00 | 0.00 | 80 | 1012.0 |
| 20260506124603 | 16 | 205 | 3.2 | 12.9 | 0.00 | 0.00 | 0.00 | 80 | 1012.0 |
| 20260506124101 | 16 | 219 | 6.4 | 16.1 | 0.00 | 0.00 | 0.00 | 81 | 1012.4 |
| 20260506123559 | 16 | 173 | 6.4 | 17.7 | 0.00 | 0.00 | 0.00 | 81 | 1012.5 |
| 20260506123057 | 16 | 137 | 6.4 | 14.5 | 0.00 | 0.00 | 0.00 | 80 | 1012.6 |
| 20260506122553 | 16 | 163 | 3.2 | 14.5 | 0.00 | 0.00 | 0.00 | 81 | 1012.5 |
| 20260506122052 | 16 | 180 | 3.2 | 8.0 | 0.00 | 0.00 | 0.00 | 82 | 1012.4 |
| 20260506121549 | 16 | 244 | 1.6 | 9.7 | 0.00 | 0.00 | 0.00 | 83 | 1012.5 |
| 20260506121045 | 16 | 175 | 3.2 | 11.3 | 0.00 | 0.00 | 0.00 | 83 | 1012.3 |
| 20260506120543 | 15 | 151 | 20.9 | 22.5 | 0.00 | 0.00 | 0.00 | 85 | 1012.4 |
| 20260506120040 | 15 | 204 | 4.8 | 9.7 | 0.00 | 0.00 | 0.00 | 87 | 1012.5 |
| 20260506115538 | 14 | 131 | 11.3 | 14.5 | 0.00 | 0.00 | 0.00 | 88 | 1012.4 |
| 20260506115036 | 15 | 79 | 4.8 | 16.1 | 0.00 | 0.00 | 0.00 | 88 | 1012.2 |
| 20260506114533 | 14 | 169 | 3.2 | 9.7 | 0.00 | 0.00 | 0.00 | 88 | 1012.2 |
| 20260506114032 | 14 | 186 | 3.2 | 8.0 | 0.00 | 0.00 | 0.00 | 88 | 1012.2 |
| 20260506113529 | 14 | 246 | 6.4 | 17.7 | 0.00 | 0.00 | 0.00 | 88 | 1012.1 |
| 20260506113026 | 13 | 154 | 3.2 | 14.5 | 0.00 | 0.00 | 0.00 | 90 | 1012.3 |
| 20260506112523 | 13 | 79 | 4.8 | 6.4 | 0.00 | 0.00 | 0.00 | 91 | 1012.3 |
| 20260506112020 | 13 | 256 | 6.4 | 6.4 | 0.00 | 0.00 | 0.00 | 90 | 1012.3 |
| 20260506111518 | 13 | 125 | 3.2 | 11.3 | 0.00 | 0.00 | 0.00 | 90 | 1012.4 |
| 20260506111015 | 13 | 133 | 3.2 | 9.7 | 0.00 | 0.00 | 0.00 | 90 | 1012.7 |
| 20260506110513 | 13 | 76 | 3.2 | 14.5 | 0.00 | 0.00 | 0.00 | 91 | 1012.4 |
| 20260506110010 | 13 | 129 | 4.8 | 11.3 | 0.00 | 0.00 | 0.00 | 91 | 1012.3 |
| 20260506105506 | 13 | 157 | 4.8 | 9.7 | 0.00 | 0.00 | 0.00 | 91 | 1012.4 |
| 20260506105003 | 13 | 180 | 4.8 | 6.4 | 0.00 | 0.00 | 0.00 | 91 | 1012.3 |
| 20260506104501 | 13 | 112 | 0.0 | 14.5 | 0.00 | 0.00 | 0.00 | 92 | 1012.2 |
| 20260506103959 | 13 | 150 | 6.4 | 14.5 | 0.00 | 0.00 | 0.00 | 92 | 1012.5 |
| 20260506103455 | 13 | 137 | 8.0 | 9.7 | 0.00 | 0.00 | 0.00 | 92 | 1012.3 |
| 20260506102952 | 13 | 110 | 3.2 | 12.9 | 0.00 | 0.00 | 0.00 | 92 | 1012.4 |
| 20260506102451 | 13 | 151 | 9.7 | 9.7 | 0.00 | 0.00 | 0.00 | 92 | 1012.3 |
| 20260506101948 | 12 | 200 | 4.8 | 8.0 | 0.00 | 0.00 | 0.00 | 92 | 1012.4 |
| 20260506101444 | 12 | 173 | 4.8 | 9.7 | 0.00 | 0.00 | 0.00 | 92 | 1012.2 |
| 20260506100941 | 12 | 140 | 3.2 | 11.3 | 0.00 | 0.00 | 0.00 | 92 | 1012.3 |
| 20260506100440 | 12 | 140 | 6.4 | 8.0 | 0.00 | 0.00 | 0.00 | 92 | 1012.3 |
| 20260506095937 | 12 | 77 | 3.2 | 12.9 | 0.00 | 0.00 | 0.00 | 92 | 1012.2 |
| 20260506095436 | 12 | 160 | 3.2 | 8.0 | 0.00 | 0.00 | 0.00 | 92 | 1012.3 |
| 20260506094931 | 13 | 151 | 3.2 | 8.0 | 0.00 | 0.00 | 0.00 | 92 | 1012.1 |
| 20260506094430 | 13 | 130 | 0.0 | 9.7 | 0.00 | 0.00 | 0.00 | 91 | 1012.1 |
| 20260506093927 | 13 | 64 | 3.2 | 16.1 | 0.00 | 0.00 | 0.00 | 91 | 1012.1 |
| 20260506093425 | 13 | 86 | 3.2 | 9.7 | 0.00 | 0.00 | 0.00 | 91 | 1012.2 |
| 20260506092923 | 13 | 137 | 9.7 | 17.7 | 0.00 | 0.00 | 0.00 | 91 | 1012.3 |
| 20260506092421 | 13 | 223 | 3.2 | 4.8 | 0.00 | 0.00 | 0.00 | 91 | 1012.4 |
| 20260506091917 | 13 | 185 | 16.1 | 19.3 | 0.00 | 0.00 | 0.00 | 91 | 1012.1 |
| 20260506091415 | 13 | 203 | 3.2 | 9.7 | 0.00 | 0.00 | 0.00 | 90 | 1012.1 |
| 20260506090912 | 13 | 104 | 9.7 | 17.7 | 0.00 | 0.00 | 0.00 | 90 | 1012.4 |
| 20260506090410 | 13 | 114 | 1.6 | 9.7 | 0.00 | 0.00 | 0.00 | 90 | 1012.3 |
| 20260506085906 | 13 | 40 | 1.6 | 11.3 | 0.00 | 0.00 | 0.00 | 90 | 1012.3 |
| 20260506085403 | 13 | 209 | 3.2 | 11.3 | 0.00 | 0.00 | 0.00 | 90 | 1012.4 |
| 20260506084859 | 13 | 132 | 6.4 | 16.1 | 0.00 | 0.00 | 0.00 | 90 | 1012.3 |
| 20260506084356 | 13 | 185 | 1.6 | 16.1 | 0.00 | 0.00 | 0.00 | 90 | 1012.4 |
| 20260506083852 | 13 | 122 | 3.2 | 11.3 | 0.00 | 0.00 | 0.00 | 89 | 1012.5 |
| 20260506083350 | 13 | 81 | 3.2 | 9.7 | 0.00 | 0.00 | 0.00 | 89 | 1012.4 |
| 20260506082847 | 13 | 76 | 3.2 | 9.7 | 0.00 | 0.00 | 0.00 | 89 | 1012.3 |
| 20260506082343 | 13 | 84 | 4.8 | 12.9 | 0.00 | 0.00 | 0.00 | 89 | 1012.3 |
| 20260506081839 | 13 | 160 | 6.4 | 16.1 | 0.00 | 0.00 | 0.00 | 89 | 1012.4 |
| 20260506081337 | 13 | 95 | 3.2 | 14.5 | 0.00 | 0.00 | 0.00 | 89 | 1012.1 |
| 20260506080835 | 13 | 156 | 4.8 | 9.7 | 0.00 | 0.00 | 0.00 | 88 | 1012.2 |
| 20260506080332 | 13 | 99 | 4.8 | 12.9 | 0.00 | 0.00 | 0.00 | 88 | 1012.3 |
| 20260506073315 | 13 | 355 | 6.4 | 12.9 | 0.00 | 0.00 | 0.00 | 87 | 1012.5 |
| 20260506072812 | 13 | 202 | 3.2 | 11.3 | 0.00 | 0.00 | 0.00 | 87 | 1012.4 |
| 20260506072310 | 13 | 192 | 0.0 | 14.5 | 0.00 | 0.00 | 0.00 | 86 | 1012.5 |
| 20260506071808 | 13 | 107 | 8.0 | 11.3 | 0.00 | 0.00 | 0.00 | 86 | 1012.5 |
| 20260506071306 | 13 | 2 | 3.2 | 12.9 | 0.00 | 0.00 | 0.00 | 86 | 1012.3 |
| 20260506070802 | 13 | 165 | 11.3 | 12.9 | 0.00 | 0.00 | 0.00 | 86 | 1012.5 |
| 20260506070259 | 13 | 119 | 6.4 | 9.7 | 0.00 | 0.00 | 0.00 | 85 | 1012.4 |
| 20260506062236 | 14 | 146 | 6.4 | 17.7 | 0.00 | 0.00 | 0.00 | 84 | 1012.4 |
| 20260506061732 | 14 | 10 | 6.4 | 9.7 | 0.00 | 0.00 | 0.00 | 84 | 1012.4 |
| 20260506061230 | 14 | 189 | 11.3 | 12.9 | 0.00 | 0.00 | 0.00 | 84 | 1012.2 |
| 20260506060728 | 14 | 123 | 4.8 | 14.5 | 0.00 | 0.00 | 0.00 | 83 | 1012.4 |
| 20260506060225 | 14 | 112 | 4.8 | 27.4 | 0.00 | 0.00 | 0.00 | 83 | 1012.4 |
| 20260506051156 | 15 | 156 | 4.8 | 14.5 | 0.00 | 0.00 | 0.00 | 80 | 1012.9 |
| 20260506050655 | 15 | 101 | 6.4 | 14.5 | 0.00 | 0.00 | 0.00 | 80 | 1012.7 |
| 20260506050151 | 15 | 145 | 8.0 | 19.3 | 0.00 | 0.00 | 0.00 | 80 | 1012.6 |
| 20260506044642 | 15 | 206 | 3.2 | 17.7 | 0.00 | 0.00 | 0.00 | 80 | 1012.8 |
| 20260506044139 | 15 | 142 | 4.8 | 16.1 | 0.00 | 0.00 | 0.00 | 79 | 1012.9 |
| 20260506043636 | 15 | 156 | 3.2 | 12.9 | 0.00 | 0.00 | 0.00 | 79 | 1012.9 |
| 20260506043134 | 15 | 190 | 3.2 | 12.9 | 0.00 | 0.00 | 0.00 | 79 | 1012.9 |
| 20260506042633 | 15 | 145 | 8.0 | 14.5 | 0.00 | 0.00 | 0.00 | 79 | 1012.9 |
| 20260506042131 | 16 | 127 | 9.7 | 20.9 | 0.00 | 0.00 | 0.00 | 78 | 1012.8 |
| 20260506041629 | 16 | 138 | 11.3 | 17.7 | 0.00 | 0.00 | 0.00 | 78 | 1012.9 |
| 20260506041125 | 16 | 180 | 8.0 | 16.1 | 0.00 | 0.00 | 0.00 | 78 | 1012.7 |
| 20260506040623 | 16 | 150 | 4.8 | 20.9 | 0.00 | 0.00 | 0.00 | 78 | 1012.9 |
| 20260506040120 | 16 | 217 | 1.6 | 14.5 | 0.00 | 0.00 | 0.00 | 78 | 1012.7 |
| 20260506035617 | 16 | 199 | 6.4 | 19.3 | 0.00 | 0.00 | 0.00 | 77 | 1013.1 |
| 20260506035113 | 16 | 169 | 1.6 | 14.5 | 0.00 | 0.00 | 0.00 | 77 | 1013.1 |
| 20260506034611 | 15 | 104 | 6.4 | 6.4 | 0.00 | 0.00 | 0.00 | 77 | 1013.0 |
| 20260506034108 | 16 | 126 | 4.8 | 9.7 | 0.00 | 0.00 | 0.00 | 77 | 1012.8 |
| 20260506033605 | 16 | 20 | 6.4 | 9.7 | 0.00 | 0.00 | 0.00 | 76 | 1013.0 |
| 20260506033101 | 16 | 151 | 12.9 | 19.3 | 0.00 | 0.00 | 0.00 | 76 | 1012.9 |
| 20260506032559 | 16 | 169 | 16.1 | 24.1 | 0.00 | 0.00 | 0.00 | 75 | 1012.9 |
| 20260506032056 | 16 | 177 | 8.0 | 14.5 | 0.00 | 0.00 | 0.00 | 74 | 1012.9 |
| 20260506031553 | 16 | 125 | 4.8 | 20.9 | 0.00 | 0.00 | 0.00 | 74 | 1013.0 |
| 20260506031050 | 16 | 178 | 9.7 | 17.7 | 0.00 | 0.00 | 0.00 | 73 | 1013.0 |
| 20260506030548 | 16 | 113 | 6.4 | 16.1 | 0.00 | 0.00 | 0.00 | 72 | 1013.1 |
| 20260506030045 | 16 | 135 | 19.3 | 22.5 | 0.00 | 0.00 | 0.00 | 72 | 1012.8 |
| 20260506025542 | 16 | 121 | 9.7 | 17.7 | 0.00 | 0.00 | 0.00 | 71 | 1012.8 |
| 20260506025038 | 16 | 178 | 6.4 | 14.5 | 0.00 | 0.00 | 0.00 | 71 | 1013.0 |
| 20260506024535 | 16 | 141 | 3.2 | 17.7 | 0.00 | 0.00 | 0.00 | 71 | 1012.7 |
| 20260506024031 | 16 | 131 | 4.8 | 19.3 | 0.00 | 0.00 | 0.00 | 71 | 1012.8 |
| 20260506023528 | 16 | 135 | 4.8 | 27.4 | 0.00 | 0.00 | 0.00 | 70 | 1012.6 |
| 20260506023026 | 16 | 218 | 4.8 | 16.1 | 0.00 | 0.00 | 0.00 | 71 | 1012.9 |
| 20260506022523 | 16 | 117 | 4.8 | 12.9 | 0.00 | 0.00 | 0.00 | 70 | 1012.7 |
| 20260506022020 | 16 | 71 | 6.4 | 27.4 | 0.00 | 0.00 | 0.00 | 70 | 1012.8 |
| 20260506021518 | 16 | 133 | 6.4 | 12.9 | 0.00 | 0.00 | 0.00 | 70 | 1012.6 |
| 20260506021015 | 16 | 134 | 14.5 | 14.5 | 0.00 | 0.00 | 0.00 | 71 | 1012.5 |
| 20260506020512 | 16 | 162 | 1.6 | 12.9 | 0.00 | 0.00 | 0.00 | 71 | 1012.7 |
| 20260506020010 | 16 | 79 | 6.4 | 11.3 | 0.00 | 0.00 | 0.00 | 71 | 1012.7 |
| 20260506015507 | 16 | 195 | 3.2 | 19.3 | 0.00 | 0.00 | 0.00 | 71 | 1012.7 |
| 20260506015003 | 16 | 15 | 4.8 | 12.9 | 0.00 | 0.00 | 0.00 | 71 | 1012.6 |
| 20260506014501 | 16 | 115 | 16.1 | 17.7 | 0.00 | 0.00 | 0.00 | 70 | 1012.6 |
| 20260506013957 | 16 | 168 | 8.0 | 16.1 | 0.00 | 0.00 | 0.00 | 71 | 1012.5 |
| 20260506013455 | 16 | 111 | 11.3 | 14.5 | 0.00 | 0.00 | 0.00 | 70 | 1012.6 |
| 20260506012950 | 16 | 125 | 8.0 | 16.1 | 0.00 | 0.00 | 0.00 | 70 | 1012.5 |
| 20260506012447 | 16 | 78 | 3.2 | 11.3 | 0.00 | 0.00 | 0.00 | 70 | 1012.3 |
| 20260506011944 | 16 | 181 | 8.0 | 20.9 | 0.00 | 0.00 | 0.00 | 69 | 1012.4 |
| 20260506011442 | 16 | 254 | 6.4 | 17.7 | 0.00 | 0.00 | 0.00 | 69 | 1012.3 |
| 20260506010938 | 16 | 132 | 8.0 | 17.7 | 0.00 | 0.00 | 0.00 | 69 | 1012.3 |
| 20260506010437 | 16 | 98 | 8.0 | 8.0 | 0.00 | 0.00 | 0.00 | 69 | 1012.3 |
| 20260506005933 | 16 | 127 | 3.2 | 11.3 | 0.00 | 0.00 | 0.00 | 69 | 1012.0 |
| 20260506005431 | 16 | 191 | 4.8 | 20.9 | 0.00 | 0.00 | 0.00 | 69 | 1012.1 |
| 20260506004926 | 16 | 170 | 3.2 | 12.9 | 0.00 | 0.00 | 0.00 | 68 | 1011.9 |
| 20260506004424 | 16 | 66 | 8.0 | 9.7 | 0.00 | 0.00 | 0.00 | 68 | 1012.0 |
| 20260506003920 | 16 | 288 | 4.8 | 14.5 | 0.00 | 0.00 | 0.00 | 67 | 1011.9 |
| 20260506003417 | 16 | 208 | 4.8 | 12.9 | 0.00 | 0.00 | 0.00 | 67 | 1012.0 |
| 20260506002913 | 16 | 171 | 8.0 | 9.7 | 0.00 | 0.00 | 0.00 | 67 | 1011.5 |
| 20260506002409 | 17 | 162 | 6.4 | 12.9 | 0.00 | 0.00 | 0.00 | 67 | 1011.4 |
| 20260506001905 | 17 | 269 | 3.2 | 17.7 | 0.00 | 0.00 | 0.00 | 66 | 1011.6 |
| 20260506001402 | 17 | 234 | 3.2 | 20.9 | 0.00 | 0.00 | 0.00 | 66 | 1011.6 |
| 20260506000859 | 17 | 216 | 3.2 | 14.5 | 0.00 | 0.00 | 0.00 | 66 | 1011.4 |
| 20260506000357 | 17 | 99 | 1.6 | 14.5 | 0.00 | 0.00 | 0.00 | 66 | 1011.5 |
| 20260505235853 | 17 | 161 | 11.3 | 11.3 | 0.00 | 0.00 | 0.00 | 65 | 1011.3 |
| 20260505235351 | 17 | 195 | 1.6 | 17.7 | 0.00 | 0.00 | 0.00 | 65 | 1011.2 |
| 20260505234848 | 17 | 295 | 3.2 | 9.7 | 0.00 | 0.00 | 0.00 | 65 | 1011.3 |
| 20260505234346 | 17 | 151 | 6.4 | 17.7 | 0.00 | 0.00 | 0.00 | 64 | 1011.0 |
| 20260505233842 | 17 | 164 | 4.8 | 17.7 | 0.00 | 0.00 | 0.00 | 64 | 1011.2 |
| 20260505233340 | 17 | 157 | 6.4 | 8.0 | 0.00 | 0.00 | 0.00 | 65 | 1010.9 |
| 20260505232837 | 18 | 272 | 3.2 | 11.3 | 0.00 | 0.00 | 0.00 | 64 | 1010.9 |
| 20260505232335 | 18 | 145 | 12.9 | 14.5 | 0.00 | 0.00 | 0.00 | 63 | 1010.8 |
| 20260505231831 | 18 | 92 | 4.8 | 8.0 | 0.00 | 0.00 | 0.00 | 63 | 1010.9 |
| 20260505231329 | 18 | 89 | 3.2 | 24.1 | 0.00 | 0.00 | 0.00 | 62 | 1010.7 |
| 20260505230827 | 18 | 119 | 6.4 | 19.3 | 0.00 | 0.00 | 0.00 | 62 | 1010.5 |
| 20260505230324 | 18 | 194 | 4.8 | 9.7 | 0.00 | 0.00 | 0.00 | 62 | 1010.4 |
| 20260505225821 | 19 | 142 | 14.5 | 16.1 | 0.00 | 0.00 | 0.00 | 61 | 1010.6 |
| 20260505225318 | 19 | 180 | 4.8 | 17.7 | 0.00 | 0.00 | 0.00 | 61 | 1010.4 |
| 20260505224813 | 20 | 143 | 14.5 | 16.1 | 0.00 | 0.00 | 0.00 | 60 | 1010.2 |
| 20260505224311 | 20 | 92 | 6.4 | 8.0 | 0.00 | 0.00 | 0.00 | 60 | 1010.5 |
| 20260505223808 | 20 | 92 | 6.4 | 8.0 | 0.00 | 0.00 | 0.00 | 60 | 1010.3 |
| 20260505223305 | 20 | 153 | 0.0 | 6.4 | 0.00 | 0.00 | 0.00 | 60 | 1010.6 |
| 20260505222800 | 20 | 153 | 0.0 | 6.4 | 0.00 | 0.00 | 0.00 | 60 | 1010.5 |
| 20260505222257 | 20 | 128 | 4.8 | 6.4 | 0.00 | 0.00 | 0.00 | 60 | 1010.6 |
| 20260505221754 | 20 | 134 | 6.4 | 6.4 | 0.00 | 0.00 | 0.00 | 60 | 1010.6 |
| 20260505221251 | 20 | 123 | 11.3 | 12.9 | 0.00 | 0.00 | 0.00 | 60 | 1010.4 |
| 20260505220748 | 20 | 147 | 12.9 | 14.5 | 0.00 | 0.00 | 0.00 | 60 | 1010.4 |
| 20260505220245 | 20 | 242 | 3.2 | 9.7 | 0.00 | 0.00 | 0.00 | 59 | 1010.4 |
| 20260505215743 | 20 | 182 | 8.0 | 9.7 | 0.00 | 0.00 | 0.00 | 58 | 1010.3 |
| 20260505215241 | 21 | 242 | 3.2 | 12.9 | 0.00 | 0.00 | 0.00 | 58 | 1010.3 |
| 20260505214738 | 21 | 225 | 0.0 | 9.7 | 0.00 | 0.00 | 0.00 | 58 | 1010.4 |
| 20260505214235 | 21 | 193 | 6.4 | 20.9 | 0.00 | 0.00 | 0.00 | 58 | 1010.4 |
| 20260505213732 | 21 | 191 | 8.0 | 14.5 | 0.00 | 0.00 | 0.00 | 56 | 1010.0 |
| 20260505213230 | 21 | 160 | 6.4 | 9.7 | 0.00 | 0.00 | 0.00 | 58 | 1010.3 |
| 20260505212726 | 21 | 182 | 16.1 | 17.7 | 0.00 | 0.00 | 0.00 | 57 | 1010.1 |
| 20260505212223 | 21 | 169 | 4.8 | 9.7 | 0.00 | 0.00 | 0.00 | 57 | 1010.1 |
| 20260505211715 | 21 | 211 | 1.6 | 8.0 | 0.00 | 0.00 | 0.00 | 58 | 1010.1 |
| 20260505211212 | 21 | 229 | 4.8 | 19.3 | 0.00 | 0.00 | 0.00 | 58 | 1010.2 |
| 20260505210709 | 22 | 162 | 6.4 | 6.4 | 0.00 | 0.00 | 0.00 | 56 | 1010.2 |
| 20260505210205 | 21 | 171 | 4.8 | 16.1 | 0.00 | 0.00 | 0.00 | 57 | 1010.4 |
| 20260505205703 | 21 | 196 | 3.2 | 11.3 | 0.00 | 0.00 | 0.00 | 57 | 1010.2 |
| 20260505205201 | 21 | 231 | 4.8 | 17.7 | 0.00 | 0.00 | 0.00 | 57 | 1010.1 |
| 20260505204656 | 21 | 260 | 3.2 | 25.7 | 0.00 | 0.00 | 0.00 | 57 | 1010.3 |
| 20260505204154 | 22 | 168 | 11.3 | 11.3 | 0.00 | 0.00 | 0.00 | 55 | 1010.2 |
| 20260505203651 | 22 | 174 | 6.4 | 17.7 | 0.00 | 0.00 | 0.00 | 56 | 1010.0 |
| 20260505203149 | 22 | 167 | 6.4 | 27.4 | 0.00 | 0.00 | 0.00 | 54 | 1010.2 |
| 20260505202644 | 22 | 180 | 4.8 | 17.7 | 0.00 | 0.00 | 0.00 | 55 | 1009.9 |
| 20260505202140 | 22 | 246 | 6.4 | 9.7 | 0.00 | 0.00 | 0.00 | 55 | 1010.1 |
| 20260505201637 | 22 | 171 | 14.5 | 19.3 | 0.00 | 0.00 | 0.00 | 55 | 1010.2 |
| 20260505201135 | 22 | 146 | 9.7 | 20.9 | 0.00 | 0.00 | 0.00 | 55 | 1010.3 |
| 20260505200632 | 22 | 192 | 3.2 | 8.0 | 0.00 | 0.00 | 0.00 | 55 | 1010.4 |
| 20260505200129 | 22 | 142 | 9.7 | 17.7 | 0.00 | 0.00 | 0.00 | 55 | 1010.5 |
| 20260505195625 | 22 | 182 | 3.2 | 12.9 | 0.00 | 0.00 | 0.00 | 54 | 1010.5 |
| 20260505195123 | 22 | 215 | 8.0 | 11.3 | 0.00 | 0.00 | 0.00 | 55 | 1010.2 |
| 20260505194615 | 23 | 62 | 3.2 | 6.4 | 0.00 | 0.00 | 0.00 | 55 | 1010.5 |
| 20260505194110 | 22 | 158 | 20.9 | 22.5 | 0.00 | 0.00 | 0.00 | 54 | 1010.4 |
| 20260505193608 | 22 | 124 | 9.7 | 25.7 | 0.00 | 0.00 | 0.00 | 55 | 1010.6 |
| 20260505193104 | 22 | 289 | 4.8 | 9.7 | 0.00 | 0.00 | 0.00 | 55 | 1010.4 |